ACA742 CYHZ-CYYT

Flight info

Callsign ACA742
Flight time 1h 2m
Altitude 39000
Route IGTAS DCT NOTOP Q806 PERLU BURIN6
Aircraft B742/H-SDFHIRWXY/L

Departure

Time 2026-05-04 17:55
Airport Halifax / Stanfield International Airport (CYHZ)

Arrival

Time 2026-05-04 18:57
Airport St. John's International Airport (CYYT)
Time Latitude Longitude Altitude Speed Heading
2026-05-04 17:24 44.88713 -63.51382 450 ft 0 kts 276°
2026-05-04 17:48 44.88712 -63.51370 450 ft 2 kts 276°
2026-05-04 17:49 44.88710 -63.51349 451 ft 2 kts 276°
2026-05-04 17:49 44.88709 -63.51328 451 ft 2 kts 277°
2026-05-04 17:49 44.88705 -63.51308 451 ft 2 kts 294°
2026-05-04 17:49 44.88698 -63.51289 451 ft 2 kts 307°
2026-05-04 17:50 44.88688 -63.51274 451 ft 2 kts 320°
2026-05-04 17:50 44.88675 -63.51261 451 ft 2 kts 333°
2026-05-04 17:50 44.88661 -63.51254 451 ft 1 kts 346°
2026-05-04 17:50 44.88655 -63.51252 451 ft 1 kts 350°
2026-05-04 17:51 44.88654 -63.51252 451 ft 0 kts 349°
2026-05-04 17:52 44.88663 -63.51252 451 ft 5 kts
2026-05-04 17:52 44.88701 -63.51157 451 ft 18 kts 76°
2026-05-04 17:52 44.88752 -63.50908 453 ft 28 kts 51°
2026-05-04 17:52 44.88868 -63.50743 449 ft 21 kts 99°
2026-05-04 17:53 44.88753 -63.50504 454 ft 39 kts 126°
2026-05-04 17:53 44.88528 -63.50072 472 ft 68 kts 124°
2026-05-04 17:53 44.88242 -63.49524 483 ft 56 kts 128°
2026-05-04 17:53 44.88164 -63.49379 481 ft 3 kts 72°
2026-05-04 17:54 44.88192 -63.49387 482 ft 6 kts 306°
2026-05-04 17:54 44.88273 -63.49549 484 ft 51 kts 304°
2026-05-04 17:54 44.88631 -63.50262 466 ft 125 kts 303°
2026-05-04 17:54 44.89340 -63.51131 970 ft 150 kts 335°
2026-05-04 17:55 44.90467 -63.50965 1533 ft 191 kts 21°
2026-05-04 17:55 44.91399 -63.49472 2162 ft 222 kts 64°
2026-05-04 17:55 44.91605 -63.47181 2523 ft 257 kts 92°
2026-05-04 17:55 44.91519 -63.44494 2868 ft 292 kts 92°
2026-05-04 17:56 44.91575 -63.41495 3208 ft 326 kts 79°
2026-05-04 17:56 44.92239 -63.38209 3400 ft 368 kts 65°
2026-05-04 17:56 44.93345 -63.34784 3622 ft 408 kts 61°
2026-05-04 17:56 44.94671 -63.31082 4530 ft 427 kts 60°
2026-05-04 17:57 44.95999 -63.27391 5954 ft 424 kts 59°
2026-05-04 17:57 44.97334 -63.23681 6973 ft 432 kts 59°
2026-05-04 17:57 44.98698 -63.19882 8048 ft 438 kts 59°
2026-05-04 17:57 45.00059 -63.16079 9013 ft 445 kts 59°
2026-05-04 17:58 45.01474 -63.12114 9974 ft 453 kts 59°
2026-05-04 17:58 45.02890 -63.08139 10909 ft 459 kts 59°
2026-05-04 17:58 45.04324 -63.04102 11875 ft 466 kts 59°
2026-05-04 17:58 45.05781 -63.00001 12608 ft 477 kts 58°
2026-05-04 17:59 45.07293 -62.95746 13104 ft 492 kts 59°
2026-05-04 17:59 45.08907 -62.91452 14017 ft 496 kts 56°
2026-05-04 17:59 45.12355 -62.83048 15956 ft 503 kts 54°
2026-05-04 18:00 45.14127 -62.78782 16717 ft 510 kts 54°
2026-05-04 18:00 45.15945 -62.74382 17316 ft 521 kts 54°
2026-05-04 18:00 45.17760 -62.69951 18172 ft 525 kts 55°
2026-05-04 18:00 45.19582 -62.65477 19014 ft 530 kts 55°
2026-05-04 18:01 45.21435 -62.60912 19766 ft 535 kts 55°
2026-05-04 18:01 45.23296 -62.56316 20460 ft 542 kts 56°
2026-05-04 18:01 45.25162 -62.51699 21139 ft 547 kts 56°
2026-05-04 18:02 45.28976 -62.42236 22452 ft 557 kts 56°
2026-05-04 18:02 45.30898 -62.37455 23020 ft 563 kts 56°
2026-05-04 18:02 45.32830 -62.32634 23575 ft 568 kts 57°
2026-05-04 18:02 45.34753 -62.27756 24126 ft 572 kts 58°
2026-05-04 18:03 45.36696 -62.22807 24630 ft 575 kts 58°
2026-05-04 18:03 45.38632 -62.17892 25405 ft 571 kts 58°
2026-05-04 18:03 45.40559 -62.13020 26212 ft 567 kts 58°
2026-05-04 18:03 45.42466 -62.08212 26959 ft 564 kts 58°
2026-05-04 18:04 45.44409 -62.03315 27588 ft 563 kts 58°
2026-05-04 18:04 45.46108 -61.98410 28099 ft 566 kts 64°
2026-05-04 18:04 45.49019 -61.88020 29271 ft 563 kts 68°
2026-05-04 18:05 45.50375 -61.82855 29782 ft 563 kts 68°
2026-05-04 18:05 45.51748 -61.77641 30263 ft 562 kts 68°
2026-05-04 18:05 45.53129 -61.72458 30692 ft 560 kts 68°
2026-05-04 18:05 45.54514 -61.67308 31023 ft 560 kts 68°
2026-05-04 18:06 45.57319 -61.56937 31541 ft 562 kts 68°
2026-05-04 18:06 45.58717 -61.51765 31806 ft 563 kts 68°
2026-05-04 18:06 45.60113 -61.46586 32058 ft 565 kts 68°
2026-05-04 18:07 45.61528 -61.41325 32331 ft 564 kts 68°
2026-05-04 18:07 45.62923 -61.36123 32612 ft 564 kts 68°
2026-05-04 18:07 45.64296 -61.30956 32820 ft 565 kts 69°
2026-05-04 18:07 45.65664 -61.25710 33023 ft 566 kts 69°
2026-05-04 18:08 45.67030 -61.20462 33215 ft 567 kts 69°
2026-05-04 18:08 45.68401 -61.15221 33440 ft 566 kts 69°
2026-05-04 18:08 45.69803 -61.09895 33679 ft 567 kts 69°
2026-05-04 18:08 45.71186 -61.04655 33893 ft 567 kts 69°
2026-05-04 18:09 45.73951 -60.94175 34349 ft 565 kts 69°
2026-05-04 18:09 45.76714 -60.83658 34676 ft 566 kts 69°
2026-05-04 18:10 45.78088 -60.78412 34838 ft 566 kts 69°
2026-05-04 18:10 45.79458 -60.73161 34961 ft 566 kts 69°
2026-05-04 18:10 45.80834 -60.67878 35107 ft 566 kts 69°
2026-05-04 18:10 45.82194 -60.62647 35244 ft 566 kts 69°
2026-05-04 18:11 45.84926 -60.52094 35435 ft 567 kts 69°
2026-05-04 18:11 45.86291 -60.46808 35541 ft 567 kts 69°
2026-05-04 18:11 45.87656 -60.41506 35675 ft 567 kts 69°
2026-05-04 18:12 45.90364 -60.30917 35809 ft 567 kts 70°
2026-05-04 18:12 45.93010 -60.20305 35928 ft 568 kts 70°
2026-05-04 18:13 45.95691 -60.09639 36022 ft 567 kts 70°
2026-05-04 18:13 45.98369 -59.99047 36140 ft 567 kts 70°
2026-05-04 18:14 45.99722 -59.93689 36194 ft 567 kts 70°
2026-05-04 18:14 46.02391 -59.83083 36299 ft 566 kts 70°
2026-05-04 18:15 46.07698 -59.61823 36491 ft 566 kts 70°
2026-05-04 18:16 46.10323 -59.51232 36592 ft 564 kts 70°
2026-05-04 18:16 46.12945 -59.40595 36625 ft 565 kts 70°
2026-05-04 18:17 46.16798 -59.24679 36742 ft 563 kts 71°
2026-05-04 18:18 46.20644 -59.08646 36818 ft 564 kts 71°
2026-05-04 18:18 46.23204 -58.98066 36802 ft 563 kts 71°
2026-05-04 18:19 46.27058 -58.82064 36794 ft 562 kts 71°
2026-05-04 18:19 46.29593 -58.71469 36801 ft 561 kts 71°
2026-05-04 18:20 46.32130 -58.60812 36789 ft 561 kts 71°
2026-05-04 18:20 46.34650 -58.50178 36776 ft 562 kts 71°
2026-05-04 18:21 46.37186 -58.39419 36784 ft 561 kts 71°
2026-05-04 18:21 46.39671 -58.28736 36776 ft 561 kts 72°
2026-05-04 18:22 46.42105 -58.18041 36774 ft 561 kts 72°
2026-05-04 18:22 46.44563 -58.07361 36765 ft 561 kts 72°
2026-05-04 18:23 46.47033 -57.96675 36769 ft 561 kts 72°
2026-05-04 18:23 46.48914 -57.88512 36758 ft 561 kts 72°
2026-05-04 18:24 46.51366 -57.77816 36748 ft 561 kts 72°
2026-05-04 18:24 46.53808 -57.67112 36761 ft 561 kts 72°
2026-05-04 18:25 46.56241 -57.56389 36740 ft 560 kts 72°
2026-05-04 18:25 46.58658 -57.45686 36735 ft 560 kts 72°
2026-05-04 18:26 46.61087 -57.34873 36735 ft 560 kts 73°
2026-05-04 18:26 46.63439 -57.24117 36729 ft 559 kts 74°
2026-05-04 18:27 46.65780 -57.13379 36721 ft 559 kts 73°
2026-05-04 18:27 46.68156 -57.02591 36712 ft 559 kts 73°
2026-05-04 18:28 46.70513 -56.91891 36713 ft 559 kts 73°
2026-05-04 18:28 46.72874 -56.81118 36721 ft 559 kts 73°
2026-05-04 18:29 46.75212 -56.70390 36728 ft 559 kts 74°
2026-05-04 18:29 46.77554 -56.59582 36707 ft 559 kts 74°
2026-05-04 18:30 46.81020 -56.43486 36714 ft 558 kts 74°
2026-05-04 18:31 46.83336 -56.32649 36716 ft 558 kts 75°
2026-05-04 18:31 46.85566 -56.21879 36717 ft 557 kts 75°
2026-05-04 18:32 46.87803 -56.11132 36712 ft 557 kts 75°
2026-05-04 18:32 46.90064 -56.00366 36712 ft 557 kts 75°
2026-05-04 18:33 46.92323 -55.89592 36735 ft 557 kts 75°
2026-05-04 18:33 46.94579 -55.78769 36730 ft 557 kts 75°
2026-05-04 18:34 46.96819 -55.67961 36730 ft 558 kts 75°
2026-05-04 18:34 46.99054 -55.57118 36665 ft 560 kts 75°
2026-05-04 18:34 47.00172 -55.51667 36519 ft 561 kts 75°
2026-05-04 18:35 47.01295 -55.46183 36462 ft 561 kts 76°
2026-05-04 18:35 47.03520 -55.35273 36445 ft 560 kts 75°
2026-05-04 18:36 47.05679 -55.24386 36449 ft 559 kts 77°
2026-05-04 18:36 47.07825 -55.13503 36384 ft 562 kts 77°
2026-05-04 18:36 47.08929 -55.07942 35791 ft 571 kts 76°
2026-05-04 18:37 47.10028 -55.02428 35133 ft 569 kts 76°
2026-05-04 18:37 47.11127 -54.96937 34467 ft 563 kts 76°
2026-05-04 18:37 47.12225 -54.91443 33789 ft 558 kts 76°
2026-05-04 18:37 47.13303 -54.86025 33114 ft 560 kts 76°
2026-05-04 18:38 47.14385 -54.80566 32471 ft 565 kts 76°
2026-05-04 18:38 47.15476 -54.75039 31913 ft 568 kts 76°
2026-05-04 18:38 47.16579 -54.69434 31327 ft 570 kts 76°
2026-05-04 18:38 47.17666 -54.63894 30754 ft 572 kts 76°
2026-05-04 18:39 47.18760 -54.58305 30142 ft 574 kts 76°
2026-05-04 18:39 47.19862 -54.52658 29540 ft 575 kts 76°
2026-05-04 18:39 47.20954 -54.47050 28902 ft 578 kts 76°
2026-05-04 18:39 47.22062 -54.41338 28243 ft 578 kts 76°
2026-05-04 18:40 47.23151 -54.35711 27596 ft 577 kts 76°
2026-05-04 18:40 47.24216 -54.30130 26975 ft 576 kts 77°
2026-05-04 18:40 47.25274 -54.24452 26313 ft 579 kts 78°
2026-05-04 18:40 47.26337 -54.18729 25589 ft 582 kts 77°
2026-05-04 18:41 47.27414 -54.12985 24882 ft 584 kts 77°
2026-05-04 18:41 47.28487 -54.07298 24188 ft 587 kts 77°
2026-05-04 18:41 47.29641 -54.01475 23439 ft 589 kts 75°
2026-05-04 18:41 47.30926 -53.95804 22672 ft 581 kts 73°
2026-05-04 18:42 47.32257 -53.90286 21899 ft 568 kts 73°
2026-05-04 18:42 47.33563 -53.84934 21145 ft 560 kts 73°
2026-05-04 18:42 47.34865 -53.79539 20372 ft 555 kts 73°
2026-05-04 18:42 47.36128 -53.74228 19605 ft 547 kts 73°
2026-05-04 18:43 47.37367 -53.68949 18838 ft 542 kts 73°
2026-05-04 18:43 47.38567 -53.63784 18096 ft 536 kts 73°
2026-05-04 18:43 47.39762 -53.58620 17336 ft 531 kts 73°
2026-05-04 18:43 47.40943 -53.53505 16583 ft 527 kts 73°
2026-05-04 18:44 47.42119 -53.48398 15821 ft 521 kts 73°
2026-05-04 18:44 47.42889 -53.45045 15313 ft 517 kts 73°
2026-05-04 18:44 47.44417 -53.38386 14283 ft 511 kts 73°
2026-05-04 18:44 47.45530 -53.33520 13539 ft 502 kts 75°
2026-05-04 18:45 47.46612 -53.28683 12773 ft 494 kts 76°
2026-05-04 18:45 47.47663 -53.23940 12008 ft 485 kts 76°
2026-05-04 18:45 47.48705 -53.19252 11226 ft 476 kts 75°
2026-05-04 18:45 47.49716 -53.14755 10440 ft 448 kts 76°
2026-05-04 18:46 47.50673 -53.10536 9670 ft 425 kts 76°
2026-05-04 18:46 47.51585 -53.06496 8873 ft 406 kts 76°
2026-05-04 18:46 47.52454 -53.02614 8089 ft 391 kts 78°
2026-05-04 18:46 47.52973 -52.98823 7476 ft 364 kts 90°
2026-05-04 18:47 47.53194 -52.95214 6973 ft 344 kts 94°
2026-05-04 18:47 47.53342 -52.91800 6471 ft 329 kts 94°
2026-05-04 18:47 47.53485 -52.88495 6034 ft 319 kts 95°
2026-05-04 18:47 47.53635 -52.85233 5757 ft 312 kts 94°
2026-05-04 18:48 47.53786 -52.82078 5514 ft 308 kts 95°
2026-05-04 18:48 47.53937 -52.78946 5283 ft 304 kts 94°
2026-05-04 18:48 47.54091 -52.75847 5182 ft 292 kts 95°
2026-05-04 18:48 47.54234 -52.72946 5102 ft 280 kts 95°
2026-05-04 18:49 47.54368 -52.70126 5010 ft 270 kts 95°
2026-05-04 18:49 47.54498 -52.67395 4934 ft 260 kts 96°
2026-05-04 18:49 47.54620 -52.64738 4687 ft 262 kts 96°
2026-05-04 18:49 47.54741 -52.62066 4305 ft 264 kts 96°
2026-05-04 18:50 47.54869 -52.59391 4126 ft 258 kts 95°
2026-05-04 18:50 47.54993 -52.56745 3981 ft 256 kts 95°
2026-05-04 18:50 47.55115 -52.54128 3844 ft 255 kts 96°
2026-05-04 18:50 47.55451 -52.51550 3693 ft 267 kts 70°
2026-05-04 18:51 47.56648 -52.49412 3563 ft 274 kts 32°
2026-05-04 18:51 47.58374 -52.48502 3415 ft 253 kts 353°
2026-05-04 18:51 47.60076 -52.48658 3281 ft 238 kts 343°
2026-05-04 18:51 47.61631 -52.49119 3166 ft 216 kts 319°
2026-05-04 18:52 47.62575 -52.50513 3122 ft 177 kts 277°
2026-05-04 18:52 47.62837 -52.52219 3082 ft 177 kts 275°
2026-05-04 18:52 47.63232 -52.53903 3057 ft 167 kts 264°
2026-05-04 18:52 47.63312 -52.55619 2893 ft 161 kts 258°
2026-05-04 18:53 47.63310 -52.57197 2613 ft 146 kts 255°
2026-05-04 18:53 47.63260 -52.58619 2435 ft 130 kts 252°
2026-05-04 18:53 47.63197 -52.59895 2226 ft 116 kts 252°
2026-05-04 18:53 47.63133 -52.61077 2177 ft 115 kts 252°
2026-05-04 18:54 47.63070 -52.62226 2027 ft 111 kts 251°
2026-05-04 18:54 47.63011 -52.63395 1885 ft 113 kts 252°
2026-05-04 18:54 47.62954 -52.64567 1688 ft 112 kts 252°
2026-05-04 18:54 47.62904 -52.65725 1519 ft 115 kts 250°
2026-05-04 18:55 47.62843 -52.66912 1373 ft 111 kts 252°
2026-05-04 18:55 47.62734 -52.69243 1075 ft 113 kts 255°
2026-05-04 18:55 47.62681 -52.70432 948 ft 114 kts 255°
2026-05-04 18:56 47.62619 -52.71662 792 ft 123 kts 257°
2026-05-04 18:56 47.62576 -52.72893 579 ft 113 kts 258°
2026-05-04 18:56 47.62522 -52.74041 445 ft 109 kts 255°
2026-05-04 18:56 47.62460 -52.75115 450 ft 94 kts 263°
2026-05-04 18:57 47.62424 -52.75849 479 ft 51 kts 265°
2026-05-04 18:57 47.62402 -52.76339 494 ft 35 kts 266°
2026-05-04 18:57 47.62370 -52.76553 490 ft 7 kts 258°
2026-05-04 18:57 47.62387 -52.76572 488 ft 3 kts 28°
2026-05-04 18:58 47.62394 -52.76525 490 ft 11 kts 86°
2026-05-04 18:58 47.62403 -52.76300 493 ft 32 kts 85°
2026-05-04 18:58 47.62423 -52.75872 480 ft 50 kts 85°
2026-05-04 18:58 47.62450 -52.75308 455 ft 54 kts 83°
2026-05-04 18:59 47.62464 -52.75063 449 ft 16 kts 93°
2026-05-04 18:59 47.62418 -52.74964 448 ft 5 kts 140°
2026-05-04 18:59 47.62415 -52.74960 448 ft 2 kts 141°
2026-05-04 18:59 47.62406 -52.74948 448 ft 0 kts 143°
2026-05-04 19:00 47.62405 -52.74947 448 ft 0 kts 143°
2026-05-04 19:00 47.62384 -52.74922 447 ft 7 kts 140°
2026-05-04 19:00 47.62334 -52.74860 447 ft 9 kts 139°
2026-05-04 19:01 47.62287 -52.74801 447 ft 7 kts 140°
2026-05-04 19:01 47.62250 -52.74755 446 ft 9 kts 140°
2026-05-04 19:01 47.62167 -52.74649 445 ft 16 kts 138°
2026-05-04 19:01 47.62080 -52.74542 443 ft 15 kts 137°
2026-05-04 19:02 47.61986 -52.74414 440 ft 21 kts 139°
2026-05-04 19:02 47.61863 -52.74255 436 ft 26 kts 140°
2026-05-04 19:02 47.61712 -52.74065 431 ft 28 kts 138°
2026-05-04 19:02 47.61556 -52.73868 426 ft 21 kts 139°
2026-05-04 19:03 47.61434 -52.73827 427 ft 17 kts 176°
2026-05-04 19:03 47.61324 -52.73818 429 ft 14 kts 178°
2026-05-04 19:03 47.61251 -52.73830 433 ft 5 kts 232°
2026-05-04 19:03 47.61258 -52.73906 435 ft 5 kts 294°
2026-05-04 19:04 47.61295 -52.73960 436 ft 14 kts 341°
2026-05-04 19:04 47.61356 -52.74000 436 ft 2 kts 282°
2026-05-04 19:04 47.61350 -52.74033 437 ft 2 kts 240°
2026-05-04 19:04 47.61344 -52.74049 438 ft 5 kts 240°
2026-05-04 19:05 47.61329 -52.74088 440 ft 1 kts 240°
2026-05-04 19:05 47.61326 -52.74098 440 ft 0 kts 240°
2026-05-04 19:05 47.61325 -52.74099 440 ft 0 kts 239°